OBJECT A, 56157

Orbit data source: Space-Track

You're viewing an Uncataloged Satellite

Recently launched and/or uncataloged satellites may have evolving metadata. Metadata may include but not limited to: Owner, Maufacturer, Bus, Motor, and Mission.

OBJECT A, 56157 is a satellite owned by PLA SSF (CN) in LEO that was launched on Fri, 31 Mar 2023 UTC via a CHANG ZHENG 4C launch vehicle from the Jiuquan Satellite Launch Center, China (JSC). Unknown objects in Earth's orbit typically refer to objects detected orbiting the Earth but have not yet been identified or cataloged. These objects could be anything from previously untracked satellites, spent rocket stages, debris from satellite collisions, or even natural meteoroids temporarily captured by Earth's gravity.

Loading next visibility...
Identifier
56157, 2023-048A
Orbit
LEO
Country
Flag of CNCN / PRC
Related business
Manufacturer
SAST
Mission
Operational Defense Imaging
Bus & Motor
Unknown
Mass
~500 kg wet, ~500 kg dry
Launch date (UTC)
2023-03-31 (3 years ago)
Launch vehicle
CHANG ZHENG 4C
Launch site
Jiuquan Satellite Launch Center, China (JSC)
Object type
Unknown
Shape & HBR
Box + 2 Pan, 0.5 m
Radar Cross Section
0.446 m², Large (>1 m²)

Expand to show TLE details & history
Last TLE update: 21 hours ago

TLE from 21 hours ago
0 OBJECT A
1 56157U 23048A   26172.54728453 -.00000041  00000-0  82232-4 0  9994
2 56157  63.4019  87.1544 0067588 355.3761   4.6633 13.45391429158526
Epoch: 2026-06-21T13:08Z
TLE epoch observation values (Epoch: 2026-06-21T13:08:05.383Z)
Latitude
Longitude
-19.61402°
Altitude
1,040.721 km
Speed
7.357 km/s
True Right ascension
05h 48m 37s
True Declination
0° 00' 00"
Sunlit
Object was in daylight at epoch
Visualization orbit readout
Latitude
Unknown
Longitude
Unknown
Altitude
Unknown
Speed
Unknown
Apparent Right ascension
Unknown
Apparent Declination
Unknown
Sunlit
N/A
Visualization observer readout
Local Sidereal Time
21:29:30
Azimuth
Unknown
Elevation
Unknown
Doppler factor
Unknown
Orbital elements
Apogee altitude
1,138.555 km
Perigee altitude
1,037.629 km
Semi-major axis
7,466.229 km
Eccentricity
0.00676
Inclination
63.4019°
RAAN
87.1544°
Arg. of periapsis
355.3761°
True anomaly
4.7268°
Mean anomaly
4.6633°
Eccentric anomaly
4.695°
Mean motion
3.36427 °/min
Orbital period
107.01 mins
BSTAR
0.000082232
Loading maneuver chart data...
Computing Atmospheric mass density...
Loading historical data...
Loading historical data...
Loading historical data...
Loading historical data...
Loading historical data...
Loading historical data...
Loading historical data...
Other satellites on launch #48 in the year 2023 (2023-03-31 UTC)

Documentation

Showing up to 5 results
|